Simultaneous Nadir Overpasses (SNOs) Predictions

Prediction of SNOs between FY3D and METOP-C Satellite Orbit:

Table of predicted SNOs for the next 14.0 days since TLE Epoch: 7/8/2024
Index Date (FY3D) Time (FY3D) Lat,Lon (FY3D) SZA (FY3D ) Date (METOP-C) Time (METOP-C) Lat,Lon (METOP-C) SZA (METOP-C ) Distance(km) Time Diff (sec)
1 07/20/2024 14:16:30 76.52, -36.11 55.98 07/20/2024 14:17:34 76.48, -32.36 55.92 97.54 64
2 07/20/2024 15:07:12 -76.40, 131.65 124.14 07/20/2024 15:08:19 -76.37, 134.56 124.19 76.06 67
3 07/20/2024 15:57:52 76.13, -60.05 55.59 07/20/2024 15:59:04 76.10, -59.07 55.55 26.42 72
4 07/20/2024 16:48:35 -76.06, 107.53 124.49 07/20/2024 16:49:49 -75.99, 107.88 124.56 11.81 74
5 07/20/2024 17:39:19 75.96, -84.84 55.43 07/20/2024 17:40:28 75.99, -84.79 55.45 3.31 69
6 07/20/2024 18:30:04 -75.98, 82.41 124.55 07/20/2024 18:31:11 -75.97, 82.47 124.56 1.93 67
7 07/20/2024 19:20:50 75.98,-110.27 55.46 07/20/2024 19:21:50 75.97,-110.19 55.45 2.51 60
8 07/20/2024 20:11:34 -75.95, 57.14 124.57 07/20/2024 20:12:33 -75.95, 57.07 124.57 1.92 59
9 07/20/2024 21:02:20 75.95,-135.55 55.44 07/20/2024 21:03:12 75.95,-135.59 55.44 1.20 52
10 07/20/2024 21:53:05 -75.97, 31.71 124.54 07/20/2024 21:53:54 -75.98, 31.82 124.53 3.25 49
11 07/20/2024 22:43:51 75.97,-160.98 55.47 07/20/2024 22:44:34 75.93,-161.00 55.44 3.89 43
12 07/20/2024 23:34:35 -75.94, 6.43 124.55 07/20/2024 23:35:16 -75.96, 6.41 124.53 2.27 41
13 07/21/2024 00:25:21 75.94, 173.74 55.46 07/21/2024 00:25:55 75.96, 173.75 55.48 2.39 34
14 07/21/2024 01:16:06 -75.96, -19.00 124.52 07/21/2024 01:16:38 -75.94, -18.99 124.54 1.75 32
15 07/21/2024 02:06:52 75.96, 148.31 55.49 07/21/2024 02:07:17 75.94, 148.35 55.47 1.91 25
16 07/21/2024 02:57:36 -75.93, -44.28 124.54 07/21/2024 02:58:00 -75.92, -44.39 124.54 3.18 24
17 07/21/2024 03:48:22 75.93, 123.03 55.47 07/21/2024 03:48:39 75.92, 122.94 55.47 2.48 17
18 07/21/2024 04:39:07 -75.94, -69.71 124.51 07/21/2024 04:39:21 -75.95, -69.64 124.50 1.92 14
19 07/21/2024 05:29:53 75.94, 97.60 55.50 07/21/2024 05:30:00 75.95, 97.70 55.51 2.62 7
20 07/21/2024 06:20:37 -75.91, -94.99 124.52 07/21/2024 06:20:43 -75.93, -95.05 124.51 2.31 6
21 07/21/2024 07:11:23 75.91, 72.33 55.49 07/21/2024 07:11:22 75.93, 72.29 55.50 2.02 1
22 07/21/2024 08:02:08 -75.93,-120.42 124.49 07/21/2024 08:02:05 -75.91,-120.45 124.51 2.47 3
23 07/21/2024 08:52:54 75.93, 46.89 55.52 07/21/2024 08:52:44 75.91, 46.89 55.50 2.20 10
24 07/21/2024 09:43:38 -75.90,-145.70 124.51 07/21/2024 09:43:26 -75.94,-145.70 124.47 3.90 12
25 07/21/2024 10:34:24 75.90, 21.62 55.50 07/21/2024 10:34:06 75.89, 21.48 55.49 3.82 18
26 07/21/2024 11:25:09 -75.92,-171.13 124.48 07/21/2024 11:24:48 -75.92,-171.10 124.48 0.65 21
27 07/21/2024 12:15:55 75.92, -3.81 55.53 07/21/2024 12:15:27 75.92, -3.77 55.53 1.31 28
28 07/21/2024 13:06:39 -75.89, 163.60 124.49 07/21/2024 13:06:10 -75.90, 163.49 124.48 2.99 29
29 07/21/2024 13:57:25 75.89, -29.09 55.52 07/21/2024 13:56:49 75.90, -29.17 55.53 2.47 36
30 07/21/2024 14:48:10 -75.91, 138.16 124.46 07/21/2024 14:47:31 -75.93, 138.24 124.44 3.06 39
31 07/21/2024 15:38:56 75.90, -54.52 55.55 07/21/2024 15:38:11 75.88, -54.57 55.52 3.14 45
32 07/21/2024 16:29:41 -75.92, 112.73 124.43 07/21/2024 16:28:53 -75.91, 112.84 124.45 3.42 48
33 07/21/2024 17:20:25 75.88, -79.80 55.53 07/21/2024 17:19:31 75.91, -79.82 55.56 3.50 54
34 07/21/2024 18:11:10 -75.89, 87.45 124.45 07/21/2024 18:10:14 -75.89, 87.43 124.45 0.87 56
35 07/21/2024 19:01:56 75.89,-105.23 55.56 07/21/2024 19:00:53 75.89,-105.23 55.56 0.56 63
36 07/21/2024 19:52:40 -75.86, 62.18 124.46 07/21/2024 19:51:36 -75.87, 62.03 124.46 4.00 64
37 07/21/2024 20:43:26 75.86,-130.51 55.55 07/21/2024 20:42:15 75.87,-130.63 55.55 3.42 71
38 07/21/2024 21:34:11 -75.88, 36.75 124.43 07/21/2024 21:32:57 -75.89, 36.78 124.42 1.82 74
39 07/21/2024 22:24:52 75.65,-155.17 55.34 07/21/2024 22:23:41 75.66,-156.64 55.37 40.56 71
40 07/21/2024 23:15:35 -75.58, 12.38 124.73 07/21/2024 23:14:25 -75.60, 10.48 124.69 52.89 70



Historial Predications of SNOs between FY3D and METOP-C
